Stations météo

réclame
Mon MeteoGroup
Reus, Espagne (8175): Température de l'air & dewpoint: 14.08.2018 01:00:00 - 20.08.2018 01:00:00 (CEST)Reus, Espagne (8175): Vitesse du vent: 14.08.2018 01:00:00 - 20.08.2018 01:00:00 (CEST)Reus, Espagne (8175): Direction du vent: 14.08.2018 01:00:00 - 20.08.2018 01:00:00 (CEST)Reus, Espagne (8175): reduced air pressure: 14.08.2018 01:00:00 - 20.08.2018 01:00:00 (CEST)Reus, Espagne (8175): visibility: 14.08.2018 01:00:00 - 20.08.2018 01:00:00 (CEST)
Date & Time tt [°C] td [°C] ff [km/h] ff [knt] dd ppp [hPa] vv [km]
20.08.2018 01:00:00 23,2 17,4 13 7 N 1019,2 30
20.08.2018 00:00:00 23,3 17,7 13 7 N 1019,1 30
19.08.2018 23:00:00 23,6 19,3 8 4 N 1019,0 30
19.08.2018 22:00:00 24,4 19,4 4 2 S 1018,7 30
19.08.2018 21:00:00 25,7 18,8 9 5 SW 1018,3 30
19.08.2018 20:00:00 27,7 18,3 16 9 SW 1018,3 30
19.08.2018 19:00:00 29,0 16,6 22 12 SW 1018,1 30
19.08.2018 18:00:00 30,2 16,3 21 11 SW 1018,4 30
19.08.2018 17:00:00 31,0 16,3 24 13 SSW 1018,7 30
19.08.2018 16:00:00 31,3 16,1 21 11 SSW 1018,6 30
19.08.2018 15:00:00 31,3 15,6 21 11 S 1018,9 30
19.08.2018 14:00:00 31,5 16,5 18 10 S 1019,2 30
19.08.2018 13:00:00 31,8 16,3 11 6 SSW 1019,5 30
19.08.2018 12:00:00 30,3 16,0 4 2 S 1020,0 30
19.08.2018 11:00:00 28,2 16,9 5 3 E 1020,2 30
19.08.2018 10:00:00 24,8 16,6 4 2 E 1020,3 30
19.08.2018 09:00:00 22,2 17,0 0 0 N 1020,3 30
19.08.2018 08:00:00 19,7 16,4 2 1 NNW 1020,2 30
19.08.2018 07:00:00 18,7 16,4 8 4 N 1019,9 30
19.08.2018 06:00:00 19,0 16,3 8 4 N 1020,0 30
19.08.2018 05:00:00 18,9 16,4 4 2 NNE 1020,1 30
19.08.2018 04:00:00 19,3 16,3 2 1 NNE 1020,0 30
19.08.2018 03:00:00 19,8 16,4 9 5 N 1020,1 30
19.08.2018 02:00:00 20,1 17,4 8 4 NNE 1020,2 30
19.08.2018 01:00:00 20,5 17,6 8 4 N 1020,2 30
19.08.2018 00:00:00 20,8 17,8 2 1 N 1020,3 30
18.08.2018 23:00:00 21,6 18,3 8 4 N 1020,1 30
18.08.2018 22:00:00 22,9 17,7 4 2 W 1019,7 30
18.08.2018 21:00:00 23,6 17,2 8 4 SSW 1019,1 30
18.08.2018 20:00:00 25,6 16,9 11 6 SSW 1018,7 30
18.08.2018 19:00:00 26,7 16,2 15 8 SSW 1018,6 30
18.08.2018 18:00:00 28,0 16,1 18 10 SSW 1018,2 30
18.08.2018 17:00:00 28,8 15,3 13 7 SSE 1018,1 30
18.08.2018 16:00:00 28,7 15,5 9 5 SSE 1018,6 30
18.08.2018 15:00:00 27,5 14,7 4 2 NNE 1018,9 30
18.08.2018 14:00:00 26,5 14,1 8 4 ENE 1019,5 27
18.08.2018 13:00:00 25,5 14,3 5 3 N 1020,0 30
18.08.2018 12:00:00 24,9 14,5 4 2 S 1020,1 30
18.08.2018 11:00:00 24,2 13,8 5 3 ENE 1020,1 30
18.08.2018 10:00:00 22,5 12,9 4 2 SSW 1020,0 30
18.08.2018 09:00:00 20,8 13,7 8 4 SE 1019,7 30
18.08.2018 08:00:00 18,8 14,6 9 5 NNW 1019,6 30
18.08.2018 07:00:00 18,2 12,3 13 7 NW 1019,1 30
18.08.2018 06:00:00 18,4 12,7 24 13 WNW 1018,8 30
18.08.2018 05:00:00 18,1 12,0 28 15 W 1018,9 30
18.08.2018 04:00:00 18,4 13,0 22 12 W 1018,9 30
18.08.2018 03:00:00 18,7 14,8 13 7 W 1018,9 30
18.08.2018 02:00:00 19,6 16,2 8 4 W 1019,1 30
18.08.2018 01:00:00 19,9 18,3 9 5 N 1019,3 30
18.08.2018 00:00:00 20,2 18,5 8 4 NW 1019,0 30
17.08.2018 23:00:00 20,1 18,8 5 3 NNW 1018,7 30
17.08.2018 22:00:00 19,9 18,3 9 5 W 1018,4 30
17.08.2018 21:00:00 19,5 18,1 13 7 W 1018,4 20
17.08.2018 20:00:00 19,6 18,3 15 8 N 1017,2 30
17.08.2018 19:00:00 20,8 18,1 26 14 N 1017,9 11
17.08.2018 18:00:00 20,5 19,9 11 6 NNW 1017,7 30
17.08.2018 17:00:00 22,1 21,9 11 6 NNW 1016,9 3,8
17.08.2018 16:00:00 26,1 21,0 22 12 ESE 1015,6 22
17.08.2018 15:00:00 31,2 18,4 5 3 S 1015,7 30
17.08.2018 14:00:00 29,4 17,8 4 2 W 1016,1 30
17.08.2018 13:00:00 24,5 21,1 9 5 W 1016,9 30
17.08.2018 12:00:00 27,3 17,9 11 6 NW 1016,8 30
17.08.2018 11:00:00 28,2 17,5 11 6 NNE 1016,5 30
17.08.2018 10:00:00 26,3 18,0 2 1 ESE 1016,0 30
17.08.2018 09:00:00 24,8 17,9 4 2 SE 1015,9 30
17.08.2018 08:00:00 22,9 19,3 0 0 N 1015,6 25
17.08.2018 07:00:00 22,0 19,3 8 4 NW 1015,2 30
17.08.2018 06:00:00 22,6 19,1 0 0 N 1014,9 30
17.08.2018 05:00:00 23,2 18,8 5 3 NW 1014,8 30
17.08.2018 04:00:00 23,3 20,4 5 3 NW 1015,0 30
17.08.2018 03:00:00 23,7 20,8 4 2 N 1015,3 28
17.08.2018 02:00:00 24,4 21,5 4 2 NNW 1015,8 30
17.08.2018 01:00:00 24,8 21,9 5 3 NW 1015,8 28
17.08.2018 00:00:00 24,4 21,8 5 3 NW 1015,6 24
16.08.2018 23:00:00 24,7 22,3 0 0 N 1015,3 30
16.08.2018 22:00:00 24,7 22,2 0 0 N 1014,8 30
16.08.2018 21:00:00 25,5 22,1 2 1 SSW 1014,2 30
16.08.2018 20:00:00 26,7 21,3 8 4 S 1013,7 30
16.08.2018 19:00:00 28,1 19,9 11 6 SE 1013,2 30
16.08.2018 18:00:00 29,3 19,4 18 10 S 1013,6 30
16.08.2018 17:00:00 30,2 19,6 21 11 SSW 1014,4 30
16.08.2018 16:00:00 30,3 20,7 22 12 S 1014,4 30
16.08.2018 15:00:00 30,0 19,9 21 11 S 1015,0 30
16.08.2018 14:00:00 30,2 19,7 18 10 S 1015,2 25
16.08.2018 13:00:00 29,7 21,2 15 8 S 1015,2 22
16.08.2018 12:00:00 29,5 20,8 15 8 S 1015,6 30
16.08.2018 11:00:00 28,6 21,6 18 10 S 1016,0 30
16.08.2018 10:00:00 26,7 22,1 8 4 S 1015,8 26
16.08.2018 09:00:00 26,2 21,7 8 4 NNE 1015,6 24
16.08.2018 08:00:00 23,7 21,2 8 4 N 1015,8 20
16.08.2018 07:00:00 23,3 21,3 8 4 N 1015,7 22
16.08.2018 06:00:00 23,3 21,3 9 5 N 1015,6 29
16.08.2018 05:00:00 23,2 21,2 9 5 NNE 1015,6 30
16.08.2018 04:00:00 23,6 21,6 8 4 N 1016,0 16
16.08.2018 03:00:00 24,0 21,6 8 4 N 1016,5 23
16.08.2018 02:00:00 24,6 21,7 0 0 N 1016,7 30
16.08.2018 01:00:00 24,6 21,8 2 1 NE 1017,0 30
16.08.2018 00:00:00 24,6 21,7 4 2 S 1017,1 30
15.08.2018 23:00:00 24,8 21,3 0 0 N 1017,3 30
15.08.2018 22:00:00 24,7 21,0 5 3 SW 1017,0 30
15.08.2018 21:00:00 25,3 20,7 8 4 SSW 1016,6 30
15.08.2018 20:00:00 26,9 20,4 13 7 S 1016,2 30
15.08.2018 19:00:00 27,9 19,8 15 8 SSW 1016,2 30
15.08.2018 18:00:00 28,8 19,7 16 9 S 1016,5 30
15.08.2018 17:00:00 29,7 18,5 16 9 S 1016,7 30
15.08.2018 16:00:00 30,5 16,5 18 10 S 1017,0 30
15.08.2018 15:00:00 30,4 15,7 18 10 SSE 1017,2 30
15.08.2018 14:00:00 30,9 15,4 16 9 S 1017,3 30
15.08.2018 13:00:00 30,6 15,3 16 9 SSW 1017,6 30
15.08.2018 12:00:00 28,8 14,0 8 4 S 1018,1 30
15.08.2018 11:00:00 27,4 15,0 2 1 ENE 1018,6 27
15.08.2018 10:00:00 24,8 13,9 0 0 N 1018,6 30
15.08.2018 09:00:00 23,1 14,6 5 3 ENE 1018,7 30
15.08.2018 08:00:00 20,9 14,6 0 0 N 1018,5 30
15.08.2018 07:00:00 19,6 14,6 0 0 N 1018,4 30
15.08.2018 06:00:00 20,6 13,4 11 6 NW 1018,0 30
15.08.2018 05:00:00 21,7 13,2 21 11 WNW 1018,0 30
15.08.2018 04:00:00 22,3 13,2 21 11 W 1017,9 30
15.08.2018 03:00:00 22,8 13,4 21 11 WNW 1017,9 30
15.08.2018 02:00:00 22,6 15,6 13 7 WSW 1018,3 30
15.08.2018 01:00:00 23,0 21,3 9 5 SW 1018,2 17
15.08.2018 00:00:00 24,7 21,9 5 3 SSW 1017,9 24
14.08.2018 23:00:00 24,7 21,6 8 4 SSW 1018,0 28
14.08.2018 22:00:00 24,9 21,1 8 4 S 1017,4 30
14.08.2018 21:00:00 25,3 20,7 9 5 SSW 1016,4 27
14.08.2018 20:00:00 26,5 20,4 15 8 SSW 1015,8 30
14.08.2018 19:00:00 27,8 20,3 24 13 SSW 1015,4 30
14.08.2018 18:00:00 29,4 18,4 24 13 SSW 1015,1 30
14.08.2018 17:00:00 30,5 17,5 26 14 SSW 1015,2 30
14.08.2018 16:00:00 32,0 13,9 21 11 WSW 1015,6 30
14.08.2018 15:00:00 31,8 14,6 22 12 W 1016,1 30
14.08.2018 14:00:00 31,0 14,4 22 12 W 1016,3 30
14.08.2018 13:00:00 29,6 14,7 29 16 W 1016,8 30
14.08.2018 12:00:00 27,9 14,1 18 10 W 1017,0 30
14.08.2018 11:00:00 27,7 14,9 22 12 W 1017,0 30
14.08.2018 10:00:00 25,5 15,0 22 12 W 1017,0 30
14.08.2018 09:00:00 23,3 14,6 29 16 W 1016,6 30
14.08.2018 08:00:00 21,8 14,9 22 12 W 1016,3 30
14.08.2018 07:00:00 20,8 15,2 16 9 W 1016,2 30
14.08.2018 06:00:00 20,8 16,8 15 8 W 1015,7 30
14.08.2018 05:00:00 21,6 18,4 11 6 WSW 1015,3 30
14.08.2018 04:00:00 21,6 20,5 0 0 N 1015,4 18
14.08.2018 03:00:00 21,3 20,1 13 7 NW 1015,3 27
14.08.2018 02:00:00 21,8 20,4 9 5 WNW 1015,6 -
14.08.2018 01:00:00 21,2 20,4 18 10 SSE 1014,3 6

tt = Température de l'air
td = dewpoint
ff = Vitesse du vent
dd = Direction du vent
ppp = reduced air pressure
vv = visibility

stations d'obs. à proximité